Location: ??????
(41.3164°N, 22.6615°E)
Time: 01:15:15
(UTC+00:00)

Oscar 19 - Pass Details

Date: 08 July 2022
Orbit: 773 x 790 km, 98.8° (Epoch: 16 August)

Event Time Altitude Azimuth Distance (km) Brightness Sun altitude
Rises 01:39:10 0° 19° (NNE) 3,258 15.1 -13.2°
Reaches altitude 10° 01:41:34 10° 24° (NNE) 2,327 14.3 -12.9°
Maximum altitude 01:46:32 50° 100° (E) 977 11.4 -12.2°
Drops below altitude 10° 01:51:29 10° 176° (S) 2,315 12.7 -11.6°
Enters shadow 01:52:54 - 180° (S) 2,865 13.2 -11.4°
